サイディング・スプリング彗星

389P/Siding Spring (2019)

English version
Home page
Updated on December 24, 2019

---------------------------------------------------------------------

・ プロフィール

符号 389P/2019 S1
検出日 2019年9月25日
検出光度 20.5等
検出者 G. V. Williams and by R. Weryk (Pan-STARRS 1 telescope, Haleakala)

・ 写真集

・ 軌道要素

Epoch 2019 Dec. 23.0 TT = JDT 2458840.5
T 2019 Dec. 29.28027 TT                                 Williams
q   1.6633324            (2000.0)            P               Q
n   0.07382747     Peri.  249.29568     +0.82686233     -0.52018935
a   5.6276110      Node   218.83752     -0.29819543     -0.72779431
e   0.7044337      Incl.  160.06863     -0.47684188     -0.44689875
P  13.4
From 79 observations 2006 Sept. 1-2019 Oct. 30, mean residual 0".5.

・ 光度変化

        m1 = 16.0 + 5 logΔ + 10.0 log r

---------------------------------------------------------------------

軌道要素はM.P.E.C. 2019-V116に掲載されたものです。
光度グラフはComet for Windowsで作成したものです。

---------------------------------------------------------------------

Copyright(C) Seiichi Yoshida (comet@aerith.net). All rights reserved.